#timestamp,LO_Frequency,Hit 
1499580015.8,286047031.5,N
1499580035.6,286047029.7,N
1499580055.4,286047029.5,N
1499580075.3,286047028.8,N
1499580095.1,286047029.4,N
1499580096.0,286047029.4,N
1499580115.8,286047029.8,N
1499580135.6,286047026.0,N
1499580155.5,286047026.6,N
1499580175.3,286047025.7,N
1499580195.1,286047025.6,N
1499580215.9,286047025.6,N
1499580235.7,286047026.4,N
1499580255.5,286047026.7,N
1499580275.4,286047026.3,N
1499580295.2,286047025.6,N
1499580315.0,286047025.4,N
1499580315.9,286047025.4,N
1499580335.8,286047026.5,N
1499580355.6,286047025.6,N
1499580375.4,286047025.5,N
1499580395.3,286047025.4,N
1499580415.1,286047027.9,N
1499580416.0,286047027.9,N
1499580435.8,286047029.9,N
1499580455.7,286047029.4,N
1499580475.5,286047027.2,N
1499580495.3,286047027.1,N
1499580515.1,286047027.0,N
1499580535.9,286047028.1,N
1499580555.7,286047026.4,N
1499580575.5,286047026.7,N
1499580595.4,286047023.8,N
1499580615.2,286047024.0,N
1499580635.0,286047024.3,N
1499580635.9,286047024.3,N
1499580655.8,286047026.8,N
1499580675.6,286047024.6,N
1499580695.4,286047024.8,N
1499580715.3,286047025.2,N
1499580735.1,286047025.0,N
1499580736.0,286047025.0,N
1499580755.8,286047024.4,N
1499580775.7,286047022.1,N
1499580795.5,286047026.8,N
1499580815.3,286047023.9,N
1499580835.2,286047022.6,N
1499580855.9,286047022.9,N
1499580875.7,286047025.1,N
1499580895.5,286047024.4,N
1499580915.4,286047024.1,N
1499580935.2,286047023.9,N
1499580955.0,286047025.6,N
1499580955.9,286047025.6,N
1499580975.8,286047026.6,N
1499580995.6,286047023.8,N
1499581015.4,286047025.6,N
1499581035.3,286047026.3,N
1499581055.1,286047024.3,N
1499581056.0,286047024.3,N
1499581075.8,286047025.0,N
1499581095.7,286047022.6,N
1499581115.5,286047022.1,N
1499581135.3,286047023.5,N
1499581155.2,286047024.9,N
1499581175.9,286047024.5,N
1499581195.7,286047022.5,N
1499581215.6,286047022.6,N
1499581235.4,286047025.2,N
1499581255.2,286047024.7,N
1499581275.0,286047022.2,N
1499581276.0,286047022.2,N
1499581295.8,286047022.5,N
1499581315.6,286047024.7,N
1499581335.4,286047022.8,N
1499581355.3,286047024.9,N
1499581375.1,286047023.9,N
1499581395.8,286047024.1,N
1499581415.7,286047024.4,N
1499581435.5,286047025.9,N
1499581455.3,286047025.8,N
1499581475.2,286047027.5,N
1499581495.9,286047026.2,N
1499581515.7,286047026.5,N
1499581535.6,286047028.0,N
1499581555.4,286047027.4,N
1499581575.2,286047028.1,N
1499581595.0,286047027.6,N
1499581595.9,286047027.6,N
1499581615.8,286047028.1,N
1499581635.6,286047029.8,N
1499581655.4,286047026.9,N
1499581675.3,286047027.5,N
1499581695.1,286047028.3,N
1499581715.8,286047024.8,N
1499581735.7,286047024.1,N
1499581755.5,286047024.9,N
1499581775.3,286047023.8,N
1499581795.2,286047024.1,N
1499581815.9,286047026.8,N
1499581835.7,286047023.7,N
1499581855.6,286047026.4,N
1499581875.4,286047025.5,N
1499581895.2,286047022.2,N
1499581915.0,286047022.8,N
1499581916.0,286047022.8,N
1499581935.8,286047022.2,N
1499581955.6,286047023.2,N
1499581975.4,286047020.8,N
1499581995.3,286047023.4,N
1499582015.1,286047021.8,N
1499582035.8,286047019.3,N
1499582055.7,286047021.6,N
1499582075.5,286047021.4,N
1499582095.3,286047019.0,N
1499582115.2,286047020.1,N
1499582135.9,286047017.6,N
1499582155.7,286047020.2,N
1499582175.6,286047017.4,N
1499582195.4,286047020.0,N
1499582215.2,286047017.7,N
1499582235.0,286047020.2,N
1499582236.0,286047020.2,N
1499582255.8,286047019.1,N
1499582275.6,286047019.4,N
1499582295.4,286047017.4,N
1499582315.3,286047017.4,N
1499582335.1,286047019.1,N
1499582355.8,286047019.7,N
1499582375.7,286047018.2,N
1499582395.5,286047017.3,N
1499582415.3,286047019.7,N
1499582435.2,286047019.7,N
1499582455.9,286047019.4,N
1499582475.7,286047021.5,N
1499582495.6,286047021.1,N
1499582515.4,286047019.0,N
1499582535.2,286047018.1,N
1499582555.1,286047016.7,N
1499582556.0,286047016.7,N
1499582575.8,286047017.1,N
1499582595.6,286047015.7,N
1499582615.4,286047015.7,N
1499582635.3,286047017.5,N
1499582655.1,286047020.3,N
1499582675.8,286047017.4,N
1499582695.7,286047018.0,N
1499582715.5,286047017.9,N
1499582735.3,286047017.4,N
1499582755.2,286047020.4,N
1499582775.9,286047017.5,N
1499582795.7,286047019.0,N
1499582815.6,286047019.6,N
1499582835.4,286047020.4,N
1499582855.2,286047019.3,N
1499582875.1,286047018.9,N
1499582876.0,286047018.9,N
1499582895.8,286047021.9,N
1499582915.6,286047021.5,N
1499582935.5,286047018.9,N
1499582955.3,286047021.3,N
1499582975.1,286047020.8,N
1499582995.8,286047021.7,N
1499583015.7,286047023.3,N
1499583035.5,286047022.8,N
1499583055.3,286047024.7,N
1499583075.2,286047025.2,N
1499583095.0,286047022.4,N
1499583095.9,286047022.4,N
1499583115.7,286047023.1,N
1499583135.6,286047021.8,N
1499583155.4,286047017.5,N
1499583175.2,286047017.3,N
1499583195.1,286047016.4,N
1499583196.0,286047016.4,N
1499583215.8,286047017.9,N
1499583235.6,286047020.3,N
1499583255.5,286047018.0,N
1499583275.3,286047016.9,N
1499583295.1,286047016.0,N
1499583315.9,286047018.4,N
1499583335.7,286047018.8,N
1499583355.5,286047015.7,N
1499583375.4,286047016.3,N
1499583395.2,286047014.1,N
1499583415.0,286047016.6,N
1499583415.9,286047016.6,N
1499583435.8,286047014.5,N
1499583455.6,286047014.9,N
1499583475.4,286047013.7,N
1499583495.2,286047015.2,N
1499583515.1,286047014.9,N
1499583516.0,286047014.9,N
1499583535.8,286047015.6,N
1499583555.6,286047015.6,N
1499583575.5,286047015.6,N
1499583595.3,286047010.9,N
